Hauptseite
METAR-TAF:

METAR-TAF

Flughäfen :

Bohrplattform

Awg-1, Niederlande

Breite: 53-29-30N, Länge: 5-56-30E, Höhe: 33 m

Beobachtung

Neuester Wetterbericht von vor 28 Minuten, um 18:55 UTC
Wind 27 kt aus Süd/Südwest
Temperatur 20°C
Luftfeuchtigkeit 73%
Luftdruck 1013 hPa
Sichtweite 10 km oder mehr
Leicht bewölkt in der Höhe von 2500 ft

METAR: EHMA 191855Z AUTO 21027KT 9999 FEW025 20/15 Q1013 W///H///

Zeit: 21:23 (19:23 UTC)


TAF: fehlend

Wetterbeobachtungen und Prognosen von mehr als 4000 Flughäfen (METAR und TAF Bericht).

Die verfügbaren Stationen werden durch gelbe und rote Markierungen auf der Karte dargestellt.

Führen Sie die Maus auf sie, um den Namen der Station zu sehen.

Darauf klicken, um die Beobachtung von Wetterbeobachtungen und Prognosen zu sehen.

Um die Karte zu ändern : klicken Sie auf den grünen Tasten mit einem schwarzen Kreuz Zum Vergrößern, auf den grünen Button mit einem Gedankenstrich zu verkleinern, oder auf die grünen Pfeile für benachbarte Karten.


METAR-TAF: